Greenville, AL

6:21 AM CST on February 23, 2017 (GMT -0600)
Greenville Municipal

Weather History for KPRN - August, 2013

Change the Weather History Date:

Saturday, August 17, 2013

  Actual Average Record
Temperature  
Mean Temperature 71 °F -  
Max Temperature 73 °F 91 °F 101 °F (1954)
Min Temperature 69 °F 69 °F 62 °F (1929)
Cooling Degree Days 6    
Growing Degree Days 21 (Base 50)    
Moisture  
Dew Point 68 °F    
Average Humidity 92    
Maximum Humidity 97    
Minimum Humidity 84    
Precipitation  
Precipitation 0.11 in - - ()
Sea Level Pressure  
Sea Level Pressure 30.03 in    
Wind  
Wind Speed 5 mph (ENE)    
Max Wind Speed 10 mph    
Max Gust Speed -    
Visibility 8 miles    
Events Rain    
Averages and records for this station are not official NWS values.
T = Trace of Precipitation, MM = Missing Value Source: NWS Daily Summary

Daily Weather History Graph

Daily Weather History Graph

Search for Another Location

Airport or City:

Trip Planner

Search our weather history database for the weather conditions in past years. The results will help you decide how hot, cold, wet, or windy it might be!

Date:

Astronomy

Aug. 17, 2013 Rise Set
Actual Time 6:12 AM CDT 7:27 PM CDT
Civil Twilight 5:47 AM CDT 7:53 PM CDT
Nautical Twilight 5:16 AM CDT 8:23 PM CDT
Astronomical Twilight 4:44 AM CDT 8:55 PM CDT
Moon 4:36 PM CDT (8/17) 2:22 AM CDT (8/17)
Length of Visible Light 14h 06m
Length of Day
13h 15m
Waxing Gibbous, 84% of the Moon is Illuminated
Aug 17
Waxing Gibbous
Aug 20
Full
Aug 28
Last Quarter
Sep 5
New
Sep 12
First Quarter

Hourly Weather History & Observations

Time (CDT) Temp. Dew Point Humidity Pressure Visibility Wind Dir Wind Speed Gust Speed Precip Events Conditions
12:17 AM 71.6 °F 68.0 °F 88% 30.05 in 6.0 mi ENE 4.6 mph - N/A   Overcast
12:56 AM 70.0 °F 68.0 °F 93% 30.03 in 9.0 mi East 5.8 mph - N/A   Overcast
1:03 AM 69.8 °F 68.0 °F 94% 30.04 in 9.0 mi East 5.8 mph - N/A   Overcast
1:26 AM 69.8 °F 68.0 °F 94% 30.03 in 8.0 mi East 4.6 mph - N/A   Overcast
1:56 AM 70.0 °F 66.9 °F 90% 30.01 in 9.0 mi ENE 5.8 mph - N/A   Overcast
2:56 AM 69.1 °F 66.9 °F 93% 30.00 in 5.0 mi ENE 4.6 mph - N/A   Overcast
3:56 AM 70.0 °F 66.9 °F 90% 29.99 in 9.0 mi East 5.8 mph - N/A   Overcast
4:56 AM 69.1 °F 66.9 °F 93% 30.00 in 8.0 mi East 8.1 mph - 0.00 in   Overcast
5:56 AM 69.1 °F 66.9 °F 93% 30.00 in 7.0 mi East 5.8 mph - 0.00 in   Overcast
6:56 AM 69.1 °F 66.9 °F 93% 30.01 in 9.0 mi ENE 4.6 mph - N/A   Overcast
7:56 AM - - N/A% - 0.7 mi ENE 6.9 mph - N/A   Unknown
8:56 AM 70.0 °F 66.9 °F 90% 30.04 in 10.0 mi East 5.8 mph - N/A   Overcast
9:56 AM 71.1 °F 66.9 °F 87% 30.04 in 10.0 mi East 6.9 mph - N/A   Overcast
10:56 AM 72.0 °F 68.0 °F 87% 30.04 in 10.0 mi East 9.2 mph - N/A   Overcast
11:56 AM 71.1 °F 68.0 °F 90% 30.04 in 10.0 mi ENE 6.9 mph - 0.02 in Rain Light Rain
12:14 PM 71.6 °F 68.0 °F 88% 30.06 in 10.0 mi NE 3.5 mph - 0.00 in Rain Light Rain
12:43 PM 71.6 °F 69.8 °F 94% 30.03 in 10.0 mi East 10.4 mph - 0.00 in   Mostly Cloudy
2:56 PM 73.0 °F 68.0 °F 84% 30.03 in 10.0 mi East 6.9 mph - N/A   Overcast
3:56 PM 72.0 °F 68.0 °F 87% 30.03 in 10.0 mi ENE 3.5 mph - 0.00 in Rain Light Rain
4:10 PM 71.6 °F 68.0 °F 88% 30.04 in 10.0 mi East 4.6 mph - 0.00 in Rain Light Rain
4:17 PM 71.6 °F 68.0 °F 88% 30.03 in 10.0 mi East 5.8 mph - 0.00 in   Overcast
4:41 PM 71.6 °F 69.8 °F 94% 30.04 in 2.5 mi East 4.6 mph - 0.03 in Rain Rain
4:49 PM 71.6 °F 69.8 °F 94% 30.04 in 1.5 mi East 4.6 mph - 0.06 in Rain Rain
4:54 PM 71.6 °F 69.8 °F 94% 30.04 in 2.5 mi East 4.6 mph - 0.06 in Rain Light Rain
4:56 PM 71.1 °F 69.1 °F 93% 30.03 in 2.5 mi East 5.8 mph - 0.06 in Rain Light Rain
5:05 PM 71.6 °F 69.8 °F 94% 30.04 in 2.0 mi ENE 4.6 mph - 0.01 in Rain Light Rain
5:15 PM 71.6 °F 69.8 °F 94% 30.04 in 10.0 mi NE 4.6 mph - 0.01 in   Mostly Cloudy
5:35 PM 71.6 °F 69.8 °F 94% 30.04 in 10.0 mi ENE 4.6 mph - 0.01 in   Mostly Cloudy
5:45 PM 71.6 °F 69.8 °F 94% 30.04 in 10.0 mi ENE 5.8 mph - 0.01 in   Overcast
5:56 PM 71.1 °F 69.1 °F 93% 30.03 in 10.0 mi ENE 4.6 mph - 0.01 in   Overcast
6:44 PM 71.6 °F 69.8 °F 94% 30.04 in 10.0 mi East 3.5 mph - N/A   Overcast
6:56 PM 71.1 °F 69.1 °F 93% 30.03 in 10.0 mi ESE 3.5 mph - N/A   Overcast
7:56 PM 71.1 °F 69.1 °F 93% 30.04 in 10.0 mi East 4.6 mph - N/A   Overcast
8:56 PM 71.1 °F 69.1 °F 93% 30.06 in 10.0 mi Calm Calm - 0.00 in   Overcast
9:15 PM 71.6 °F 69.8 °F 94% 30.06 in 6.0 mi NNW 4.6 mph - 0.02 in Rain Light Rain
9:56 PM 70.0 °F 69.1 °F 97% 30.04 in 10.0 mi East 4.6 mph - 0.02 in   Overcast
10:24 PM 69.8 °F 68.0 °F 94% 30.06 in 10.0 mi ESE 3.5 mph - N/A   Mostly Cloudy
10:56 PM 70.0 °F 68.0 °F 93% 30.05 in 10.0 mi Calm Calm - N/A   Overcast
11:56 PM 70.0 °F 69.1 °F 97% 30.05 in 10.0 mi Calm Calm - 0.00 in Rain Light Rain